Wind_Speed
5 5 6 6 5 5 5 5 4 4 4 4 5 6 7 8 8 9 9 9 9 8 8 8 8 8 7 7 7 7 7 7 7 6 6 5 5 5 4 3 2 1 1
7 7 6 6 6 6 5 5 5 5 5 5 6 7 7 8 8 9 9 9 9 9 9 9 9 8 8 8 7 7 7 7 7 6 6 6 5 5 4 3 2 1 0
8 8 8 7 7 7 7 7 6 6 6 6 7 7 8 9 9 9 9 10 10 10 10 10 9 9 9 8 7 7 7 7 7 7 6 6 5 5 4 3 2 1 1
10 9 9 9 9 8 8 8 8 7 7 8 8 9 9 10 10 11 11 11 11 11 11 10 10 10 9 9 8 8 7 7 7 7 6 6 5 5 4 3 3 2 2
11 11 11 10 9 9 9 9 9 9 9 9 10 11 11 12 12 12 12 12 13 12 12 11 11 11 10 10 9 9 8 8 8 8 7 7 6 5 5 4 3 3 3
12 12 11 11 10 9 9 9 10 10 10 11 12 12 13 13 13 13 13 14 14 13 13 13 12 12 12 11 10 10 9 9 9 8 7 7 7 6 6 5 5 4 4
13 13 12 11 11 10 10 10 11 11 12 12 13 13 14 15 15 15 15 15 15 14 14 14 14 13 13 13 12 11 10 10 9 9 8 8 8 7 7 6 5 5 5
14 13 13 12 11 11 11 12 12 13 13 14 14 15 15 15 16 16 16 16 16 16 16 16 15 15 14 14 13 13 12 11 10 10 10 9 9 8 8 7 6 6 6
14 14 14 13 13 12 12 13 13 14 14 15 15 16 16 16 17 17 17 18 17 17 17 17 17 16 16 16 15 14 13 12 12 11 11 10 10 9 9 8 8 7 7
15 16 16 16 14 14 14 14 14 14 15 16 16 16 17 17 18 18 18 18 18 18 18 19 18 18 18 17 17 16 15 13 13 12 12 11 10 10 10 9 9 8 8
16 17 18 18 16 15 15 16 16 15 16 16 16 16 17 18 18 18 18 19 20 20 20 20 20 20 19 19 18 18 17 16 14 14 13 12 11 11 11 11 10 10 9
18 18 19 19 18 17 16 17 17 17 17 17 17 18 18 19 19 19 19 19 20 20 21 21 21 21 21 20 20 19 19 18 17 16 15 14 13 13 12 12 11 11 11
19 19 20 20 19 18 17 17 17 17 17 18 18 19 19 20 20 21 21 21 21 22 22 22 22 22 22 22 21 21 20 19 19 18 17 16 15 14 14 14 14 13 13
21 20 21 21 20 19 19 18 18 18 18 18 18 19 20 20 21 22 22 23 23 23 23 24 24 23 23 22 22 22 21 20 20 19 18 18 17 16 16 15 15 14 14
21 21 21 22 20 20 20 20 19 19 20 20 20 20 20 21 21 22 23 24 25 25 25 25 25 24 24 23 23 22 22 23 21 20 20 20 19 18 17 16 16 16 16
21 21 21 20 20 20 20 21 20 20 19 20 20 21 21 22 23 23 23 23 24 25 25 25 25 25 25 24 23 23 23 23 23 22 21 21 20 20 19 18 18 18 17
21 21 20 20 20 20 20 21 21 20 20 21 21 22 22 23 23 23 24 24 25 24 24 24 24 25 25 24 24 24 23 23 24 24 23 23 22 22 21 21 20 20 20
21 21 21 20 20 20 20 20 20 20 20 21 22 22 23 23 24 24 24 24 25 25 24 24 24 24 25 24 24 24 23 24 25 24 25 24 24 23 22 22 21 22 22
22 22 22 21 20 20 20 21 20 20 20 21 23 23 24 23 24 24 25 25 24 25 25 25 26 25 25 25 25 25 25 24 25 25 25 25 24 23 23 24 23 24 24
21 20 21 21 19 19 19 21 20 20 21 21 23 24 24 24 24 24 25 25 24 24 25 25 26 26 26 26 26 26 25 25 24 25 25 26 26 25 24 25 25 25 25
18 18 18 19 20 19 19 20 21 21 22 23 23 24 25 24 24 24 24 23 23 22 23 24 25 26 26 26 26 26 26 25 25 25 26 26 26 26 25 25 25 25 25
20 19 19 19 19 19 20 21 22 22 22 24 24 24 24 24 23 24 24 23 23 22 23 24 25 26 26 26 25 25 26 26 26 25 25 25 26 25 25 25 25 25 26
20 19 19 20 20 21 21 21 22 22 23 24 24 24 24 23 23 23 23 23 23 23 23 23 24 25 26 26 25 26 26 25 26 26 26 26 26 26 25 26 26 26 25
21 21 20 20 21 21 22 22 23 23 23 24 24 23 24 24 24 24 24 24 24 23 23 24 25 26 26 27 27 27 27 27 26 26 27 27 26 26 27 26 26 26 25
21 21 21 21 21 22 23 23 23 24 24 25 24 24 24 24 24 24 25 25 25 25 25 25 26 26 27 27 27 27 27 27 28 28 27 28 27 27 26 26 25 25 25
23 24 23 23 23 23 24 24 24 25 26 25 25 26 26 26 26 26 25 26 26 25 25 25 25 25 26 26 25 26 27 27 27 26 27 27 27 27 26 25 25 26 25
Wind_Direction
325 317 311 314 323 333 338 343 350 357 358 357 352 348 348 344 341 340 340 338 336 334 333 333 334 336 339 341 343 345 348 350 352 351 352 355 355 351 349 342 332 330 122
310 306 302 299 306 312 318 321 323 329 334 336 335 333 331 329 327 328 329 328 325 324 324 324 325 328 331 332 335 336 338 340 343 344 344 349 347 342 339 338 320 303 220
301 296 294 292 296 300 303 307 310 313 318 321 321 319 317 317 316 316 317 317 316 316 317 317 319 320 323 324 324 327 330 332 334 334 333 335 336 333 330 325 311 302 274
298 289 288 286 289 293 295 300 302 305 307 308 308 309 309 309 309 309 308 309 309 309 310 311 312 314 315 315 314 315 318 322 324 325 324 324 323 320 317 310 301 291 285
293 285 283 282 282 288 293 296 297 297 298 301 301 302 302 302 303 305 303 306 305 303 303 304 305 306 307 307 304 304 307 310 311 314 316 316 315 313 309 303 295 289 284
289 286 283 281 279 283 289 292 292 293 294 296 298 299 300 300 300 300 299 300 302 299 299 298 298 299 299 298 298 298 300 302 303 305 309 309 308 310 307 299 294 286 282
289 287 281 280 280 282 284 287 290 291 293 294 295 297 297 297 298 296 296 295 295 294 294 294 294 294 292 292 293 293 294 298 299 301 299 303 306 304 303 297 292 287 280
288 284 279 281 284 285 285 288 290 288 290 292 292 295 295 294 294 294 292 292 290 289 289 290 290 291 289 287 288 289 290 292 294 296 296 297 300 298 294 294 288 285 277
283 279 278 284 285 286 287 289 290 287 287 290 290 291 292 292 291 292 291 289 287 286 285 285 285 286 286 284 284 285 286 287 289 291 291 291 292 291 289 286 283 284 278
281 277 279 281 281 284 285 286 286 286 287 288 288 289 290 290 289 290 290 288 286 285 283 283 281 281 281 281 281 280 281 282 283 284 285 285 287 286 286 284 282 279 276
278 278 278 278 279 281 284 285 285 284 285 287 287 288 290 289 288 285 287 288 286 284 282 281 279 278 278 278 279 278 277 276 277 278 278 277 279 280 284 286 279 275 275
276 276 276 276 277 280 284 284 284 284 284 286 287 287 290 290 287 285 285 286 286 284 282 280 279 278 275 275 276 275 274 273 273 273 272 272 274 276 279 281 277 274 275
275 275 274 273 275 276 280 281 281 283 284 285 287 287 289 288 286 285 284 283 284 283 281 279 277 276 274 274 274 272 272 271 271 271 269 269 270 272 276 280 280 274 272
274 272 272 272 273 274 277 281 282 282 283 285 286 288 289 289 288 287 284 283 282 281 279 277 274 273 270 272 272 269 268 268 269 269 267 267 268 267 271 273 274 274 269
274 274 275 271 269 271 274 282 283 279 279 282 285 286 288 290 292 291 287 283 282 281 278 274 271 271 269 270 271 270 267 264 266 267 267 265 265 265 265 266 268 269 270
277 277 276 269 265 267 272 278 279 275 276 280 284 287 287 289 291 290 288 287 286 282 277 274 271 270 268 269 268 266 265 263 261 261 264 264 263 264 263 263 264 266 267
278 276 275 268 263 266 271 275 276 274 274 278 282 285 286 288 288 288 286 284 283 282 278 275 271 271 269 270 268 263 262 263 260 260 261 262 262 263 262 261 261 263 265
276 274 273 266 265 266 268 269 271 271 274 277 281 285 286 286 286 287 286 283 281 279 276 272 271 270 268 269 268 265 262 263 260 259 259 260 262 262 262 261 261 261 263
275 272 269 268 268 266 264 266 269 271 275 277 282 286 285 285 287 286 286 284 281 276 272 269 268 267 267 268 268 266 264 263 260 259 259 262 262 262 261 260 260 262 264
277 272 270 267 267 265 263 267 270 274 278 282 285 287 286 285 285 285 285 284 280 275 270 267 264 264 266 266 266 264 262 261 261 261 262 262 262 262 261 262 262 262 264
279 276 271 267 266 265 265 269 272 277 281 284 285 285 285 287 286 285 285 283 279 276 270 265 265 264 265 265 265 262 261 260 260 262 262 261 261 261 260 261 261 262 265
279 274 271 271 267 266 268 272 274 277 282 285 284 285 285 286 287 285 284 282 278 276 273 270 270 266 265 264 262 260 259 259 261 263 263 262 261 260 260 260 260 263 266
279 277 275 272 270 269 271 271 273 277 279 282 283 283 284 286 287 286 284 283 281 278 276 271 269 266 263 263 262 262 260 259 261 262 263 263 261 260 261 260 259 261 264
280 277 274 273 272 271 271 272 275 278 280 281 284 284 285 285 285 285 284 282 280 277 275 272 269 267 265 264 263 262 259 258 259 261 261 260 260 260 260 260 261 260 262
278 275 276 275 273 272 272 273 276 278 279 281 284 285 287 287 286 286 285 282 279 277 275 273 270 267 265 264 262 259 259 258 259 259 258 259 260 260 260 259 258 259 261
276 275 274 275 276 277 277 276 277 278 279 281 283 285 286 287 286 285 285 281 279 276 273 273 271 268 265 262 260 259 259 259 258 258 258 258 258 258 258 259 258 259 261
Height
5905 5905 5905 5904 5904 5903 5903 5903 5903 5903 5903 5904 5904 5904 5904 5904 5904 5904 5904 5903 5903 5903 5902 5902 5901 5901 5900 5900 5899 5898 5898 5897 5897 5897 5896 5896 5895 5895 5894 5894 5894 5894 5894
5905 5905 5904 5904 5903 5903 5902 5902 5902 5902 5903 5903 5903 5903 5903 5904 5904 5903 5903 5903 5903 5903 5902 5901 5901 5901 5900 5899 5899 5898 5898 5897 5897 5897 5896 5896 5895 5895 5894 5894 5894 5894 5894
5904 5904 5904 5903 5902 5902 5902 5901 5901 5901 5902 5902 5902 5902 5903 5903 5903 5903 5902 5902 5902 5902 5901 5901 5900 5900 5900 5899 5899 5898 5898 5897 5897 5897 5896 5896 5895 5895 5894 5894 5894 5894 5894
5903 5903 5902 5902 5901 5901 5901 5900 5900 5900 5900 5900 5901 5901 5901 5901 5901 5901 5901 5901 5901 5901 5900 5900 5900 5900 5899 5899 5899 5898 5898 5897 5897 5896 5896 5896 5895 5895 5894 5894 5894 5894 5893
5901 5901 5901 5901 5900 5900 5900 5899 5899 5899 5899 5899 5899 5899 5899 5899 5899 5899 5899 5899 5899 5899 5899 5899 5899 5899 5898 5898 5898 5897 5897 5897 5896 5896 5895 5895 5895 5894 5894 5893 5893 5893 5893
5900 5900 5900 5899 5899 5898 5898 5898 5898 5897 5897 5897 5897 5897 5897 5897 5897 5897 5897 5897 5897 5897 5897 5897 5897 5897 5897 5897 5897 5896 5896 5896 5895 5895 5894 5894 5894 5893 5893 5893 5892 5892 5892
5898 5898 5897 5897 5897 5897 5896 5896 5896 5896 5896 5896 5896 5895 5895 5895 5895 5895 5895 5894 5894 5895 5895 5895 5895 5895 5895 5895 5895 5895 5894 5894 5894 5893 5893 5892 5892 5892 5891 5891 5891 5891 5891
5896 5895 5895 5895 5895 5895 5894 5894 5894 5894 5894 5894 5894 5893 5893 5893 5893 5893 5892 5892 5892 5892 5892 5893 5893 5893 5893 5893 5893 5893 5893 5892 5892 5892 5891 5891 5891 5890 5890 5890 5890 5890 5890
5893 5893 5893 5893 5893 5892 5892 5892 5892 5891 5891 5891 5891 5891 5891 5890 5890 5890 5890 5890 5890 5889 5889 5890 5890 5890 5890 5891 5890 5890 5890 5890 5890 5890 5889 5889 5889 5889 5888 5888 5888 5888 5888
5891 5891 5891 5891 5890 5890 5890 5889 5889 5889 5889 5889 5888 5888 5888 5887 5887 5887 5887 5887 5887 5886 5886 5886 5887 5887 5887 5887 5888 5888 5888 5888 5888 5887 5887 5887 5887 5886 5886 5886 5886 5886 5886
5888 5888 5888 5888 5887 5887 5887 5887 5886 5886 5886 5886 5885 5885 5885 5884 5884 5884 5884 5883 5883 5883 5883 5883 5883 5883 5883 5884 5884 5884 5885 5885 5885 5885 5884 5884 5884 5884 5884 5884 5884 5884 5884
5885 5885 5884 5884 5884 5884 5884 5884 5883 5883 5883 5883 5882 5882 5881 5881 5880 5880 5880 5880 5879 5879 5879 5879 5879 5879 5880 5880 5880 5881 5881 5881 5882 5882 5882 5882 5881 5881 5881 5882 5882 5882 5882
5881 5881 5881 5880 5880 5880 5880 5880 5880 5880 5880 5879 5879 5878 5878 5877 5876 5876 5876 5875 5875 5875 5874 5874 5875 5875 5875 5876 5876 5876 5877 5877 5878 5878 5879 5879 5878 5878 5878 5878 5879 5879 5879
5877 5876 5876 5876 5876 5876 5876 5876 5876 5876 5876 5875 5875 5874 5873 5873 5872 5871 5871 5871 5871 5870 5870 5870 5870 5870 5870 5871 5871 5872 5872 5873 5874 5874 5875 5875 5875 5875 5875 5875 5875 5876 5876
5872 5872 5872 5872 5872 5872 5872 5872 5872 5872 5871 5871 5871 5870 5869 5868 5868 5867 5866 5866 5865 5864 5864 5864 5864 5865 5865 5866 5866 5867 5867 5868 5869 5870 5870 5870 5871 5871 5871 5871 5872 5872 5872
5868 5867 5866 5866 5867 5867 5868 5868 5867 5867 5867 5867 5866 5865 5865 5864 5863 5862 5862 5860 5860 5859 5859 5858 5859 5859 5860 5861 5861 5861 5862 5863 5864 5865 5866 5866 5866 5867 5867 5867 5868 5868 5868
5864 5863 5862 5861 5861 5862 5863 5863 5863 5862 5862 5862 5861 5861 5860 5859 5858 5857 5856 5855 5854 5854 5853 5853 5854 5854 5854 5855 5855 5856 5857 5858 5858 5859 5860 5861 5861 5862 5862 5863 5863 5863 5864
5859 5858 5857 5856 5856 5857 5858 5858 5858 5858 5858 5858 5857 5856 5855 5854 5853 5852 5851 5850 5848 5848 5847 5848 5848 5848 5849 5849 5850 5851 5851 5852 5853 5853 5854 5855 5856 5856 5857 5857 5858 5858 5859
5853 5852 5851 5851 5852 5852 5853 5853 5853 5853 5853 5853 5852 5851 5849 5848 5848 5846 5845 5844 5843 5842 5842 5842 5842 5842 5843 5844 5844 5845 5846 5846 5847 5848 5849 5849 5850 5851 5851 5852 5852 5853 5854
5847 5846 5846 5847 5847 5847 5848 5849 5849 5849 5848 5847 5847 5846 5844 5843 5842 5841 5839 5838 5837 5836 5836 5836 5836 5837 5837 5837 5838 5839 5840 5841 5841 5842 5843 5844 5845 5845 5846 5846 5847 5847 5848
5845 5844 5843 5843 5844 5844 5844 5844 5844 5843 5843 5842 5841 5840 5839 5837 5836 5835 5833 5832 5831 5830 5830 5830 5830 5830 5831 5831 5832 5833 5834 5835 5835 5836 5837 5838 5839 5839 5840 5841 5841 5842 5842
5840 5839 5838 5838 5838 5839 5839 5839 5839 5838 5838 5837 5836 5834 5833 5831 5830 5829 5828 5826 5825 5825 5824 5824 5824 5824 5824 5825 5826 5826 5828 5829 5829 5830 5831 5831 5832 5833 5834 5834 5835 5836 5836
5835 5834 5834 5833 5833 5833 5834 5833 5833 5833 5832 5831 5830 5829 5827 5826 5825 5823 5822 5821 5820 5819 5818 5818 5818 5818 5818 5818 5819 5820 5821 5822 5823 5824 5824 5825 5826 5826 5827 5828 5829 5829 5830
5830 5829 5828 5828 5828 5828 5828 5828 5827 5827 5826 5826 5824 5823 5822 5820 5819 5817 5816 5815 5813 5813 5812 5812 5812 5812 5812 5812 5812 5813 5814 5815 5816 5817 5818 5818 5819 5820 5821 5822 5822 5823 5824
5825 5824 5823 5822 5822 5822 5822 5822 5821 5821 5820 5819 5818 5817 5816 5814 5813 5811 5810 5809 5807 5806 5806 5805 5805 5805 5805 5805 5806 5806 5807 5808 5809 5810 5811 5812 5812 5813 5814 5815 5816 5817 5818
5820 5819 5818 5818 5817 5816 5816 5815 5815 5814 5813 5813 5812 5811 5809 5808 5806 5805 5803 5802 5801 5800 5799 5799 5798 5798 5798 5798 5798 5799 5800 5801 5802 5803 5804 5805 5806 5807 5807 5808 5810 5811 5811